User: anonymous   Login
Location: Stigler
(35.2540°N, 95.1230°W)
Time: 11:46:53
(UTC-06:00)
Language:

Cosmos 1805 - Orbit

View from above orbital plane
View from above orbital plane
View from above satellite
View from above satellite

Ground track
Ground track

The orbit data is extracted from the following two-line orbital elements,

1 17191U 86097A   16040.47090915  .00002815  00000-0  16758-3 0  9991
2 17191  82.4751 155.4286 0004259 357.2783   2.8423 15.10849999589077
Epoch (UTC): 09 February 2016 11:18:06
Eccentricity: 0.0004259
inclination: 82.4751°
perigee height: 530 km
apogee height: 536 km
right ascension of ascending node: 155.4286°
argument of perigee: 357.2783°
revolutions per day: 15.10849999
mean anomaly at epoch: 2.8423°
orbit number at epoch: 58907

The dashed part of the orbit path shows where the satellite is in the earth's shadow,  

DLR